Miscellaneous Local Product
Issued by NWS Hastings, NE

Home | Current Version | Previous Version | Text Only | Print | Product List | Glossary Off
Versions: 1 2 3 4 5 6 7 8 9 10 11 12 13 14 15 16 17 18 19 20 21 22 23 24 25 26 27 28 29 30 31 32 33 34 35 36 37 38 39 40 41 42 43 44 45 46 47 48 49 50

000
AXUS43 KGID 020202
MISGRI

GID CWA HOURLY WEATHER ROUNDUP
NATIONAL WEATHER SERVICE HASTINGS NE
900 PM CDT SUN MAY 01 2016

NOTE: "FAIR" INDICATES FEW OR NO CLOUDS BELOW 12,000 FEET WITH NO
SIGNIFICANT WEATHER AND/OR OBSTRUCTIONS TO VISIBILITY.

...SOUTH CENTRAL NEBRASKA...

CITY           SKY/WX    TMP DP  RH WIND       PRES   REMARKS
GRAND ISLAND   CLOUDY    47  41  80 NW6       30.19S
HASTINGS       CLOUDY    47  41  80 N5        30.18R
KEARNEY        CLOUDY    45  39  81 N3        30.20S
ORD            CLOUDY    47  41  80 N5        30.18R
YORK           CLOUDY    46  45  93 N5        30.18R
AURORA         CLOUDY    47  45  91 NW7       30.18S
LEXINGTON      CLEAR     44  37  78 SE3       30.20R
HOLDREGE       MOCLDY    45  40  80 NE5       30.19S
HEBRON         CLOUDY    47  42  80 N5        30.16F

...NEBRASKA PANHANDLE...

CITY           SKY/WX    TMP DP  RH WIND       PRES   REMARKS
CHADRON        CLEAR     48  32  53 NE5       30.23R
ALLIANCE       PTCLDY    37  32  82 SW8       30.22R WCI  31
SCOTTSBLUFF    CLEAR     46  33  60 NE5       30.24R
SIDNEY         CLOUDY    37  30  75 W9        30.26R WCI  30

...WESTERN AND NORTH CENTRAL NEBRASKA...

CITY           SKY/WX    TMP DP  RH WIND       PRES   REMARKS
VALENTINE      CLEAR     50  31  48 N3        30.21R
AINSWORTH      CLEAR     44  34  69 N3        30.21R
ONEILL         PTCLDY    49  37  65 CALM      30.19R
BROKEN BOW     PTCLDY    46  37  71 NE6       30.19R
IMPERIAL       MOCLDY    44  33  65 N8        30.24R
NORTH PLATTE   CLOUDY    46  35  65 N6        30.21R
MCCOOK         CLOUDY    49  36  61 CALM      30.20R

...EASTERN NEBRASKA...

CITY           SKY/WX    TMP DP  RH WIND       PRES   REMARKS
NORFOLK        MOCLDY    49  40  71 CALM      30.17R
SO SIOUX CITY  CLOUDY    50  43  77 NW5       30.16R
TEKAMAH        CLOUDY    50  46  86 NW5       30.16R
COLUMBUS       CLOUDY    48  37  66 CALM      30.19R
ALBION         CLOUDY    48  41  77 N3        30.18S
OMAHA EPPLEY   CLOUDY    50  44  80 W3        30.15R
MILLARD        CLOUDY    49  44  82 CALM      30.15S
LINCOLN        CLOUDY    50  43  77 NW3       30.18R
NEBRASKA CITY  CLOUDY    47  46  95 NW3       30.14S
BEATRICE       CLOUDY    46  43  87 N9        30.14F
FALLS CITY     CLOUDY    49  43  80 N8        30.12S

...NORTHERN KANSAS...

CITY           SKY/WX    TMP DP  RH WIND       PRES   REMARKS
GOODLAND       CLOUDY    40  32  73 N9        30.23R WCI  34
HILL CITY      CLOUDY    47  40  76 E3        30.21R
NORTON         MOCLDY    45  37  76 E5        30.19S
PHILLIPSBURG   CLOUDY    46  39  76 CALM      30.20S
SMITH CENTER   CLOUDY    45  39  81 N5        30.20R
BELOIT         CLOUDY    45  39  81 NW8       30.17S
HAYS           CLOUDY    46  34  61 N10       30.19S
RUSSELL        CLOUDY    46  41  82 N9        30.18R
CONCORDIA      CLOUDY    47  40  76 N6        30.16S
SALINA         CLOUDY    49  42  77 N13       30.17R
TOPEKA         CLOUDY    50  42  74 N12       30.12R



USA.gov is the U.S. government's official web portal to all federal, state and local government web resources and services.